Temp
16 16 17 17 18 18 19 20 20 20 21 21 22 23 23 22 21 21 20 20 20 19 19 19 19 18 19 19 18 18 18 18 20 18 15 14 13 14 13 12 11 10 10
14 14 14 15 16 16 17 18 18 19 19 20 20 20 21 21 20 20 20 20 20 19 19 19 19 18 18 18 18 18 18 17 19 19 14 13 13 12 12 12 10 9 9
15 14 14 14 14 14 14 15 16 17 17 18 19 20 19 19 20 20 21 20 20 19 19 19 19 18 18 18 18 18 18 17 17 18 15 13 12 11 10 10 9 9 8
14 15 15 14 13 13 13 13 14 14 15 15 16 18 21 18 18 19 20 20 19 19 20 21 19 19 18 17 18 18 17 18 18 18 16 13 12 10 10 9 8 8 7
14 14 14 14 14 14 13 14 13 13 14 14 14 16 18 19 16 17 18 18 17 20 19 20 20 20 20 19 18 18 17 18 18 19 18 15 12 10 10 9 8 7 7
13 13 14 14 14 14 14 13 14 14 13 14 14 13 13 14 15 15 16 16 18 15 18 19 19 20 20 19 19 19 19 17 18 19 19 19 16 13 10 10 8 7 7
12 13 13 13 14 13 14 14 13 13 13 14 14 15 13 13 13 14 15 15 15 16 19 19 18 18 19 18 18 18 18 17 17 17 18 17 17 15 12 10 9 8 8
12 12 13 13 13 13 13 12 13 14 13 13 13 13 14 13 12 13 14 14 14 17 19 19 19 18 18 17 17 16 16 16 17 16 16 16 16 16 13 12 11 9 8
11 11 12 12 12 13 13 13 13 12 12 13 13 12 12 13 13 12 13 13 14 15 16 16 17 18 19 18 17 17 16 16 16 16 16 16 16 15 13 12 10 8 7
11 11 10 10 11 11 12 12 12 12 12 13 13 12 12 12 13 13 11 13 14 15 15 16 17 16 17 18 17 17 17 17 16 16 16 16 16 15 14 12 12 10 9
9 9 9 9 9 10 10 11 11 11 11 11 12 12 12 11 11 12 12 12 13 14 13 15 15 17 16 17 17 16 17 17 16 16 16 15 14 13 14 12 12 12 10
8 7 8 8 8 8 9 10 10 10 11 10 10 10 11 10 11 11 11 12 13 12 13 13 14 14 15 15 15 16 16 16 16 16 16 16 16 15 13 12 11 11 11
6 6 6 7 7 7 7 8 9 10 10 11 12 10 10 12 11 11 11 10 10 11 12 13 13 12 14 14 14 15 15 14 15 16 17 17 16 16 14 12 12 12 11
4 5 5 5 5 5 6 7 8 9 10 10 11 11 11 10 10 11 11 11 12 11 11 12 13 14 14 14 13 13 13 14 15 16 17 17 17 15 14 12 12 11 10
3 3 4 4 4 4 5 5 7 7 8 9 10 10 11 11 12 10 10 10 11 12 12 11 11 11 12 12 13 13 14 13 13 14 16 16 16 16 16 13 12 11 10
2 2 3 3 3 4 4 4 5 5 6 6 6 7 9 9 9 9 9 9 10 10 10 11 13 12 13 13 12 13 14 13 14 15 15 16 16 16 16 14 12 12 10
1 1 2 2 3 3 3 4 4 5 5 5 6 6 6 7 7 7 7 7 8 8 9 11 11 12 12 12 13 13 14 14 14 14 15 15 16 16 15 16 14 12 11
1 1 1 1 2 2 2 3 3 4 5 5 5 5 5 5 5 6 6 6 6 7 8 10 10 10 11 12 12 12 12 13 13 13 14 15 15 16 16 16 16 14 11
0 0 0 0 0 1 1 2 2 3 4 4 4 5 5 5 5 5 6 5 5 6 8 8 9 9 9 10 11 12 12 12 12 13 14 15 15 16 16 16 16 15 13
-1 -1 -1 -0 -0 0 0 1 1 2 3 3 4 4 4 4 4 4 4 4 4 5 6 7 8 8 8 8 9 10 11 11 11 12 13 14 15 15 16 16 16 15 12
-1 -1 -1 -1 -1 -0 -0 0 1 1 1 2 3 4 4 4 4 4 5 5 5 5 6 6 6 7 7 7 8 9 10 11 11 11 11 13 13 14 15 16 16 15 12
-2 -1 -1 -1 -1 -1 -0 -0 0 1 1 1 2 2 2 3 3 4 4 4 5 5 6 5 6 6 7 7 7 8 9 10 10 11 10 12 13 13 15 15 16 14 12
-1 -1 -1 -1 -1 -1 -1 -0 0 0 1 1 1 2 2 2 2 3 4 4 4 4 5 5 5 6 7 8 9 9 9 9 10 9 9 10 11 13 14 15 15 12 10
-1 -1 -1 -0 0 0 1 2 2 1 1 1 1 1 2 2 2 2 3 3 4 4 4 4 5 6 7 7 7 7 8 9 10 10 9 9 10 11 12 14 14 12 10
-1 -1 -1 -1 -1 -0 -0 1 1 2 2 2 1 2 2 2 2 3 3 3 3 4 5 4 4 4 5 5 6 7 8 9 9 10 9 9 10 11 12 13 13 13 11
-1 -1 -1 -1 -1 -1 -1 -0 -0 0 1 2 3 3 3 3 3 3 3 3 4 4 4 4 5 4 5 5 5 7 8 8 8 8 8 9 10 11 11 11 12 11 9
Height
764 761 759 756 756 757 759 761 765 768 771 773 776 779 781 785 790 793 796 800 803 805 808 810 814 816 818 820 821 822 823 824 822 825 827 827 826 826 826 828 828 830 831
770 766 763 760 758 755 755 757 759 761 764 767 771 775 780 779 783 786 789 793 797 800 802 804 808 811 814 816 818 819 820 822 822 822 825 827 826 827 827 828 829 831 832
774 771 768 765 762 759 755 754 756 757 759 760 763 765 769 777 777 776 781 784 788 792 795 798 801 804 809 812 814 816 818 819 820 821 823 825 825 826 828 829 830 832 832
775 772 769 768 766 764 763 758 756 757 757 754 756 757 759 767 771 774 776 775 777 782 785 792 796 798 802 807 810 813 815 817 818 819 821 823 824 825 826 828 830 831 832
774 772 769 766 764 763 763 758 756 756 754 753 749 751 752 760 763 763 765 769 773 768 778 781 789 792 797 801 805 809 811 814 816 817 817 819 820 821 823 825 826 828 830
773 771 769 766 764 761 759 757 759 755 757 754 753 756 757 755 757 759 764 768 765 769 768 777 782 788 792 797 801 805 808 810 812 813 813 813 815 817 818 821 823 827 830
772 769 767 764 762 759 756 755 753 752 753 755 750 749 753 753 757 756 757 757 763 760 764 770 775 781 785 792 797 802 804 806 808 809 810 811 811 813 815 816 818 820 821
768 766 764 761 759 757 755 752 750 748 747 747 746 747 747 744 750 750 752 753 759 755 759 764 769 774 779 785 792 797 799 801 803 805 806 808 808 809 811 812 813 817 819
763 761 759 756 754 752 750 748 746 744 741 740 739 741 742 744 741 747 751 747 749 751 755 758 765 769 774 781 786 790 794 796 797 799 801 803 804 805 807 809 811 814 817
757 755 753 752 749 746 744 743 741 739 737 734 733 733 733 736 736 739 744 741 744 746 750 755 760 767 769 777 781 785 788 790 792 794 797 798 799 800 802 805 808 809 812
751 748 745 744 741 739 737 735 734 733 732 731 729 729 730 730 731 734 740 733 734 744 749 750 758 760 766 771 775 779 782 785 786 788 792 795 795 796 797 800 803 805 806
742 740 737 736 734 732 730 728 727 727 726 725 726 725 726 727 727 730 733 735 743 746 742 748 751 756 762 765 768 772 776 778 782 782 787 790 792 792 793 793 797 801 804
732 731 729 728 726 725 723 721 721 720 719 718 718 719 719 722 725 729 730 734 737 740 742 741 746 753 756 760 760 763 767 771 775 777 778 783 787 789 790 791 793 796 800
723 721 719 717 717 717 716 714 713 712 711 711 711 712 714 715 716 718 722 725 731 733 736 738 740 744 749 750 756 758 759 765 766 769 772 777 781 784 788 787 789 793 796
715 712 709 708 706 706 706 705 704 704 704 703 704 705 707 706 708 711 713 717 721 725 730 732 734 736 738 742 746 752 754 758 760 762 766 771 775 778 781 784 783 788 792
706 703 701 699 697 696 695 694 694 694 696 697 698 699 699 701 704 707 709 711 715 719 723 723 724 727 727 733 738 740 745 747 753 756 759 762 766 772 774 779 780 782 786
699 695 693 691 688 687 686 686 684 685 685 685 686 688 690 694 697 700 704 705 708 712 711 712 714 716 721 725 727 731 733 735 742 748 753 753 757 762 768 769 774 778 781
691 687 685 682 681 679 679 677 676 675 674 674 675 678 679 682 686 690 695 699 700 701 701 702 704 709 711 713 716 722 726 728 733 737 744 744 747 752 757 761 764 771 773
682 678 676 673 672 671 670 668 667 666 666 665 667 668 669 672 674 678 683 685 687 688 689 692 696 699 703 708 710 714 718 721 726 727 732 735 737 742 746 752 755 761 767
674 671 668 665 662 661 660 659 658 657 656 655 655 656 660 663 664 667 670 672 675 677 680 683 687 691 695 700 704 707 710 714 717 718 721 725 729 733 736 743 747 752 760
668 663 659 657 654 652 651 649 648 648 647 647 646 648 651 652 653 654 657 659 662 665 668 673 677 682 686 691 695 699 701 704 706 709 713 718 721 724 728 734 739 744 752
662 657 653 649 646 643 641 640 639 638 637 637 637 638 640 642 643 644 646 647 650 653 657 661 665 669 674 679 683 688 691 693 697 699 704 709 713 717 720 726 730 738 744
659 653 648 643 639 635 633 630 628 627 626 626 627 628 629 630 631 633 634 637 639 642 645 649 653 657 661 664 669 674 678 682 685 690 695 702 705 709 713 716 722 731 737
659 653 647 641 636 632 627 623 618 616 617 616 617 618 618 619 620 621 623 626 629 631 635 638 641 645 649 654 659 663 667 672 676 679 687 691 697 702 706 709 715 723 731
659 653 647 641 636 630 625 620 615 611 609 608 608 608 608 609 610 611 612 615 618 620 623 626 630 633 638 643 648 652 657 662 667 671 678 684 689 693 698 702 709 715 724
660 654 648 642 636 630 625 619 615 610 607 603 601 599 598 597 597 599 602 604 606 609 612 616 619 623 628 632 638 644 649 654 660 665 671 677 681 686 691 696 704 711 718
Wind_Speed
19 15 9 5 7 12 18 24 24 23 24 26 26 30 30 30 29 28 25 21 20 17 16 15 13 12 11 10 8 8 7 7 5 2 1 3 3 1 6 10 12 9 9
17 16 16 14 9 5 7 13 17 20 20 23 20 18 23 27 29 30 28 26 25 22 21 18 17 14 13 12 11 9 8 7 5 2 2 1 2 3 7 10 10 9 7
13 13 14 14 15 15 10 4 6 14 17 18 22 25 22 24 28 35 33 31 29 27 24 22 20 19 16 14 13 11 8 7 5 4 4 4 3 7 9 9 9 8 7
15 14 11 11 11 11 10 10 9 5 4 6 12 19 28 26 29 31 31 34 35 32 31 27 23 23 20 18 15 13 11 8 6 5 5 4 4 6 10 11 10 11 9
15 15 14 12 10 10 11 11 10 8 8 7 7 13 21 36 22 31 32 30 31 34 32 28 26 25 23 22 19 17 14 10 7 4 4 4 6 7 12 12 13 13 10
15 16 16 16 14 12 12 12 16 10 7 2 7 11 8 17 24 19 30 41 34 33 32 29 25 26 24 25 22 19 16 13 9 5 4 4 6 8 10 14 13 10 5
16 16 17 16 17 17 17 16 14 12 16 17 7 11 9 13 17 19 26 24 36 34 32 33 28 24 27 25 24 19 16 15 11 9 6 5 5 9 11 14 16 11 7
17 18 18 18 18 18 17 16 18 15 14 16 18 19 18 12 20 15 19 23 28 29 32 33 32 26 29 24 21 21 19 18 17 12 9 6 6 6 12 10 15 14 9
18 18 21 22 22 21 20 18 17 17 16 18 21 22 23 29 18 15 20 19 17 19 21 21 24 23 28 29 21 20 18 17 16 15 13 11 9 9 11 10 14 15 5
22 23 24 23 25 26 24 21 19 16 17 14 15 18 23 28 28 26 21 16 20 16 18 20 23 20 22 25 22 20 18 16 14 14 16 13 11 11 13 13 13 16 7
26 26 25 24 24 25 24 22 20 17 13 11 7 10 14 17 22 27 27 14 12 17 20 17 17 22 25 25 25 20 19 14 14 13 12 11 9 8 10 15 14 17 14
26 26 25 23 23 24 25 22 20 19 17 15 17 12 8 9 13 21 22 22 18 19 16 20 22 22 23 23 25 25 24 20 14 13 14 14 13 11 10 14 15 14 15
26 25 25 24 23 23 24 25 24 23 21 20 17 13 15 17 18 19 18 18 17 18 15 14 15 14 14 16 18 20 20 18 16 17 18 17 15 12 9 10 14 15 14
23 24 26 26 25 23 23 23 26 27 26 24 22 21 20 17 19 25 25 22 22 22 19 19 19 20 24 17 15 18 17 18 19 20 19 19 15 13 12 11 15 18 17
26 26 26 24 23 24 24 24 23 26 28 28 28 26 25 24 25 22 22 22 22 19 16 16 17 19 20 19 22 23 20 19 20 19 20 20 19 18 17 13 13 19 15
24 23 22 22 22 22 21 23 28 31 31 30 33 32 27 27 24 19 24 28 28 26 19 25 25 25 26 26 25 28 28 26 23 23 25 25 23 23 20 16 14 21 19
23 23 22 21 21 22 22 21 19 22 28 32 33 35 36 35 26 25 28 25 24 24 27 28 27 27 26 28 27 27 29 27 27 30 30 27 26 27 23 21 18 18 18
24 25 25 22 21 22 22 21 21 21 19 22 28 35 36 38 37 34 31 26 26 30 31 29 27 25 26 25 25 26 25 24 27 28 33 31 29 29 27 26 22 21 20
24 23 22 23 22 22 21 21 24 24 23 23 23 24 29 35 36 35 34 35 29 27 29 31 28 27 26 26 27 26 25 26 26 27 29 31 32 31 30 28 25 23 22
22 23 24 23 22 21 21 21 22 23 21 20 21 23 21 25 27 28 28 28 29 31 31 31 28 28 26 27 26 24 24 25 26 25 27 29 31 32 31 30 27 23 25
23 22 22 22 21 21 21 21 21 21 22 23 26 27 28 26 23 24 26 28 32 31 33 33 31 30 30 33 30 30 29 29 28 27 27 27 29 30 31 30 28 27 26
22 20 19 18 18 19 20 21 22 22 22 23 23 24 26 28 27 28 26 30 32 31 32 32 33 33 34 33 32 33 34 31 30 28 27 27 28 29 29 30 28 26 27
22 21 20 18 18 20 19 20 22 23 23 23 23 22 22 26 29 29 29 29 31 33 32 32 33 34 36 37 37 36 34 35 33 29 27 28 26 29 30 29 29 26 29
23 22 20 18 17 16 14 13 18 23 22 21 21 22 23 24 26 28 30 30 31 29 30 33 33 33 33 33 33 34 33 31 32 31 34 26 29 31 30 31 31 30 29
24 23 21 19 18 17 17 16 16 10 15 19 21 22 23 25 27 29 29 29 30 30 29 33 35 35 36 34 33 32 32 32 31 29 30 30 30 30 31 29 30 28 29
26 24 23 21 20 19 18 17 16 15 13 12 12 16 22 25 27 27 28 29 29 31 32 33 33 35 34 34 34 32 31 33 34 31 31 33 31 31 32 29 31 29 32
Wind_Direction
6 4 357 318 261 247 248 246 240 242 239 238 235 226 221 214 211 210 210 207 207 204 202 200 205 201 201 200 203 211 213 213 245 149 81 10 40 64 181 188 196 189 187
6 5 10 11 349 277 279 260 247 240 240 238 242 242 241 221 215 215 210 208 207 202 202 196 199 199 196 196 193 200 203 206 227 238 143 136 116 170 184 194 186 189 195
350 6 16 24 25 22 25 319 291 245 243 242 244 240 244 245 229 219 215 211 207 207 200 200 197 192 196 197 193 191 189 182 187 203 156 173 149 178 178 183 190 188 191
346 344 336 339 350 2 2 27 38 22 304 251 254 257 253 253 245 240 225 213 208 205 205 205 200 199 194 192 186 180 172 171 174 189 174 163 173 190 200 186 184 197 192
333 335 332 331 329 322 314 332 2 5 19 14 331 286 253 255 260 244 230 234 214 206 201 199 203 202 199 193 180 177 172 172 178 189 193 181 181 176 203 210 205 202 208
323 315 312 316 318 322 318 308 292 296 305 48 49 16 290 274 268 251 235 232 245 248 190 197 199 198 194 194 191 193 195 183 193 217 232 257 226 213 200 205 189 171 211
315 314 312 310 308 306 303 303 302 288 268 264 268 252 300 333 284 263 240 221 211 209 198 202 194 193 193 197 202 207 210 210 208 206 226 248 260 230 207 201 207 203 197
300 303 304 300 300 302 295 287 285 285 271 267 256 250 249 294 313 272 237 216 212 200 201 203 199 195 198 199 201 207 214 217 219 217 225 252 263 238 212 230 221 200 208
295 294 293 292 292 290 289 285 284 279 269 264 264 255 245 254 251 301 254 215 211 198 198 199 203 201 206 208 197 201 207 217 220 225 230 242 259 248 212 199 184 178 174
287 291 290 286 283 281 278 275 277 273 272 261 257 257 254 243 236 242 273 240 216 201 209 212 219 212 216 217 209 205 211 217 211 219 230 232 248 248 240 221 208 189 169
287 287 284 280 275 271 271 266 263 258 255 263 250 247 239 231 233 231 235 236 244 218 221 212 226 227 232 230 224 212 223 225 221 213 219 215 211 226 231 213 219 221 201
283 281 276 274 274 271 265 262 258 258 254 252 251 236 227 217 212 214 216 217 227 227 213 217 226 241 237 230 228 230 238 237 224 210 219 229 226 220 219 219 213 220 232
280 275 273 273 271 268 264 259 256 252 252 251 247 250 240 233 227 224 218 217 218 230 218 217 213 233 236 241 232 230 232 228 218 215 218 230 231 233 202 200 215 219 232
278 276 271 264 264 262 259 257 252 249 250 249 248 248 250 251 250 247 244 241 237 238 241 243 242 239 247 240 244 238 225 224 216 220 225 229 226 211 210 196 198 211 209
282 277 271 267 259 253 252 248 247 249 248 249 249 249 247 245 245 248 248 246 248 245 239 237 243 242 244 239 234 237 230 228 220 218 223 226 222 216 215 205 188 192 189
286 282 277 266 264 257 246 245 247 250 253 251 252 251 252 248 249 247 244 245 250 246 242 242 237 238 235 232 228 228 229 224 229 226 221 224 227 223 212 208 196 196 185
287 284 279 275 266 255 252 250 253 253 253 249 250 251 246 245 248 243 244 242 237 232 231 233 233 232 231 229 228 229 227 225 224 230 231 225 225 225 215 211 210 196 198
285 280 277 275 266 262 260 259 252 248 248 247 242 242 246 247 246 245 242 238 233 231 231 229 233 231 233 230 226 227 227 221 222 223 230 225 221 220 219 218 214 213 189
290 283 274 270 266 263 263 257 254 251 250 250 245 239 238 242 247 245 242 236 234 231 226 231 234 232 227 229 227 224 222 222 222 221 226 224 219 219 220 221 221 212 198
296 288 281 274 266 263 256 252 251 252 252 245 238 233 229 227 229 231 230 229 228 228 229 231 229 227 227 221 220 222 222 223 222 221 224 224 220 218 218 221 221 208 200
300 292 283 273 266 260 257 252 250 246 244 244 245 244 238 230 229 221 224 225 225 225 226 227 226 225 220 222 224 225 228 232 227 219 217 222 218 215 216 219 219 213 194
312 302 294 279 271 261 255 251 249 248 246 245 246 242 236 231 227 229 234 228 227 228 225 224 224 222 219 216 217 220 225 226 227 222 216 223 213 214 212 215 212 201 187
326 317 310 299 285 272 263 255 249 243 241 241 242 240 232 229 233 234 234 234 230 224 222 219 222 221 223 222 222 220 220 222 220 210 208 209 216 213 213 208 200 183 181
338 337 335 331 329 323 311 286 282 242 240 241 238 238 236 233 232 231 231 229 230 228 227 222 221 222 222 222 221 220 222 220 218 215 214 212 210 208 204 203 196 181 180
345 343 342 338 334 332 327 326 330 313 244 238 238 237 236 235 234 233 232 229 228 227 222 217 219 221 219 217 217 217 216 217 215 214 208 211 207 202 196 193 192 190 182
350 349 347 344 341 338 333 330 327 325 320 312 291 255 243 236 235 233 230 227 225 223 223 223 221 218 219 218 217 216 215 215 213 210 207 208 212 197 191 187 186 180 179